User: anonymous   Login
Location: L�Adrech
(44.2500°N, 6.4167°E)
Time: 11:36:19
(UTC+00:00)
Language:

GEOS 3 Rocket - Orbit

View from above orbital plane
View from above orbital plane
View from above satellite
View from above satellite

Ground track
Ground track

The orbit data is extracted from the following two-line orbital elements,

1  7735U 75027B   20226.67321630 -.00000158  00000-0  85124-5 0  9993
2  7735 114.9737 144.5540 0053667 293.2789  66.2649 14.24613249354535
Epoch (UTC): 13 August 2020 16:09:25
Eccentricity: 0.0053667
inclination: 114.9737°
perigee height: 771 km
apogee height: 848 km
right ascension of ascending node: 144.5540°
argument of perigee: 293.2789°
revolutions per day: 14.24613249
mean anomaly at epoch: 66.2649°
orbit number at epoch: 35453

The dashed part of the orbit path shows where the satellite is in the earth's shadow,  

DLR